World > North America > United States > Illinois > Grand Chain

Hourly Grand Chain, IL Regional Weather

Feedback E-mail the Weather

Quick WX

Grand Chain, IL Weather Maps

°F °C°F °C
Grand Chain Weather Map
UTC Time: 8/15/2022, 06:36
Your Time:

Grand Chain, IL Regional Weather

Expires:202208150700;;124046
ASUS43 KLOT 150610
RWRIL 

ILLINOIS REGIONAL WEATHER ROUNDUP
NATIONAL WEATHER SERVICE CHICAGO/ROMEOVILLE IL
100 AM CDT MON AUG 15 2022

NOTE: "FAIR" INDICATES FEW OR NO CLOUDS BELOW 12,000 FEET WITH NO
SIGNIFICANT WEATHER AND/OR OBSTRUCTIONS TO VISIBILITY.

* THESE STATIONS ARE NOT UNDER NWS QUALITY CONTROL. THEY ALSO MAY NOT
  REPORT WEATHER SUCH AS PRECIPITATION OR FOG.


ILZ064>066-069>071-074>076-080>082-084>086-088>090-092>094-150700-
SOUTH-CENTRAL ILLINOIS
  
CITY           SKY/WX    TMP DP  RH WIND       PRES   REMARKS
CARBONDALE     PTCLDY    69  67  93 CALM      29.94S                  
6HR MIN TEMP:  69; 6HR MAX TEMP:  82;                                

CAIRO*         CLOUDY    76  73  89 NE5       29.92F                  
EFFINGHAM*     CLOUDY    70  67  90 N7        29.97F FOG              
MARION         PTCLDY    71  70  98 CALM      29.95S                  
MT. VERNON     PTCLDY    71  70  96 N6        29.95R                  
CENTRALIA*     PTCLDY    71  71 100 N6        29.95S                  
SALEM*         PTCLDY    69  69  99 N3        29.96S                  
METROPOLIS*    PTCLDY    71  70  97 CALM      29.93F                  
$$


SKY/WX - Weather  TMP - Temperature  DP - Dew Point  RH - Humidity
WIND - Wind Direction/Speed PRES - Barometric Pressure VSB - Visibility
WCI - Wind Chill Index E13G22 Wind - East Wind 13 mph/Gusts of 22 mph

Trending Headlines

Grand Chain Radar Loop



Grand Chain Quick Facts


National Two Day Weather Forecast


E-mail the Grand Chain Weather Forecast

Voice your opinion or tell us about page issues...